Simultaneous Nadir Overpasses (SNOs) Predictions

Prediction of SNOs between LANDSAT-8 and NOAA-19 Satellite Orbit:

Table of predicted SNOs for the next 14.0 days since TLE Epoch: 7/10/2021
Index Date (LANDSAT-8) Time (LANDSAT-8) Lat,Lon (LANDSAT-8) SZA (LANDSAT-8 ) Date (NOAA-19) Time (NOAA-19) Lat,Lon (NOAA-19) SZA (NOAA-19 ) Distance(km) Time Diff (sec)
1 07/11/2021 02:04:10 80.45,-179.31 59.72 07/11/2021 02:03:29 80.44,-179.49 59.69 3.38 41
2 07/11/2021 02:53:38 -80.41, -12.03 120.34 07/11/2021 02:54:30 -80.43, -11.95 120.30 2.42 52
3 07/13/2021 07:37:57 -80.37, -83.52 120.11 07/13/2021 07:36:43 -80.50, -83.89 120.06 16.27 74
4 07/13/2021 08:27:21 80.44, 84.79 60.01 07/13/2021 08:27:37 80.44, 84.69 60.01 1.88 16
5 07/15/2021 14:01:05 -80.45,-178.49 119.63 07/15/2021 14:00:48 -80.44,-178.52 119.65 1.57 17
6 07/15/2021 14:50:32 80.42, -11.14 60.33 07/15/2021 14:51:45 80.43, -11.16 60.37 1.28 73
7 07/17/2021 19:34:49 80.44, -82.07 60.72 07/17/2021 19:33:54 80.45, -81.96 60.72 2.50 55
8 07/17/2021 20:24:16 -80.44, 85.59 119.27 07/17/2021 20:24:57 -80.44, 85.46 119.27 2.53 41
9 07/20/2021 01:57:59 80.45,-177.71 61.15 07/20/2021 01:58:02 80.45,-177.85 61.14 2.57 3
10 07/22/2021 07:31:44 -80.44, -81.28 118.45 07/22/2021 07:31:15 -80.46, -81.30 118.44 2.57 29



Historial Predications of SNOs between LANDSAT-8 and NOAA-19
